Wetterstats.de || Aktuelle Messwerte || Aktuelle Wetterkarten NEU! || Radar / Satellit NEU! || Wetterarchiv || Langzeitwerte NEU! || Klim. Kenntage || Met. Ereignisse || Agrarwerte || Echtzeitwerte

Monatsübersicht für November 2020 Diagramm
 
Wetter Information zur Wetteranzeige
Zeitraffer
Tageslänge (hh:mm)
Höchsttemperatur in °C
Uhrzeit
Tiefsttemperatur in °C
Uhrzeit
Luftfeuchte (max., in %)
Uhrzeit
Luftfeuchte (min., in %)
Uhrzeit
Luftdruck (max., in hPa)
Uhrzeit
Luftdruck (min., in hPa)
Uhrzeit
Luftdruck (Ø, in hPa)
Regenrate (max, mm/h)
Uhrzeit
Niederschlag in mm
Verdunstung in mm
Solar in W/m² (Ø)
Solar in W/m² (max.)
UV-Index (max.)
Sonnenscheindauer (hh:mm)
Windrichtung (Ø)
Windstärke (Ø in km/h)
Windstärke (Ø in bft)
Windböe (max., in km/h)
Uhrzeit
Windböe (max., in bft)
Uhrzeit
Taupunkt (max., in °C)
Uhrzeit
Taupunkt (min., in °C)
Uhrzeit
Windchill (min., in °C)
Uhrzeit
Gewitterindex (max.)
Uhrzeit
Waldbrandindex (max.)
Uhrzeit
Graslandfeuerindex (max.)
Uhrzeit
Staubsturm-Index (max.)
Uhrzeit
01
Zeitraffer
09:37
14.7
22:05 Uhr
11.3
04:30 Uhr

96
09:30 Uhr
89
20:10 Uhr
1017.4
00:05 Uhr

1010.9
23:55 Uhr
1014.2
1,000
07:40 Uhr
1,200
0.203
47
98
12:45 Uhr
0.0
00:00 Uhr

00:00:00
1,2
0
14,5
00:00 Uhr

3
13.1
23:30 Uhr
9.9
04:30 Uhr
11.3
04:30 Uhr
5
00:00 Uhr
0.0
00:00 Uhr
0.0
00:00 Uhr
0.0
00:00 Uhr
02
Zeitraffer
09:33
20.1
14:35 Uhr
14.5
04:35 Uhr

97
09:40 Uhr
77
15:15 Uhr
1014.1
23:55 Uhr

1009.2
14:30 Uhr
1010.3
6,200
07:25 Uhr
5,400
0.457
59
152
11:45 Uhr
0.5
11:40 Uhr

00:00:00
0,6
0
16,1
10:35 Uhr

3
16.9
12:30 Uhr
13.2
00:00 Uhr
14.5
04:35 Uhr
9
17:10 Uhr
0.0
00:00 Uhr
0.0
00:00 Uhr
0.0
00:00 Uhr
03
Zeitraffer
09:29
16.2
00:00 Uhr
11.1
19:20 Uhr

88
00:35 Uhr
61
13:00 Uhr
1023.6
23:50 Uhr

1014.1
00:00 Uhr
1020.8
0,000
00:00 Uhr
0,000
0.737
106
392
11:25 Uhr
0.7
11:20 Uhr

01:25:00
0,2
0
8,0
10:15 Uhr

2
14.0
00:00 Uhr
6.4
13:20 Uhr
11.1
19:20 Uhr
8
00:00 Uhr
0.0
00:00 Uhr
0.0
00:00 Uhr
0.0
00:00 Uhr
04
Zeitraffer
09:25
12.7
11:30 Uhr
5.9
23:55 Uhr

89
23:15 Uhr
65
11:00 Uhr
1035.3
23:15 Uhr

1023.6
00:05 Uhr
1029.4
0,000
00:00 Uhr
0,000
0.762
121
338
11:40 Uhr
0.6
11:10 Uhr

03:14:00
0,2
0
8,0
10:00 Uhr

2
6.7
00:00 Uhr
4.3
23:55 Uhr
5.9
23:55 Uhr
0
00:00 Uhr
0.0
00:00 Uhr
0.0
00:00 Uhr
0.0
00:00 Uhr
05
Zeitraffer
09:21
11.4
11:50 Uhr
4.2
05:00 Uhr

94
07:30 Uhr
74
15:05 Uhr
1037.3
08:50 Uhr

1034.4
23:30 Uhr
1035.8
0,000
00:00 Uhr
0,000
0.584
113
302
12:00 Uhr
0.5
11:00 Uhr

04:10:00
0,1
0
8,0
13:55 Uhr

2
7.5
11:45 Uhr
3.0
05:00 Uhr
4.2
05:00 Uhr
0
00:00 Uhr
0.0
00:00 Uhr
0.0
00:00 Uhr
0.0
00:00 Uhr
06
Zeitraffer
09:19
10.9
13:00 Uhr
8.8
00:15 Uhr

92
22:25 Uhr
84
00:05 Uhr
1034.8
10:40 Uhr

1032.5
23:40 Uhr
1033.9
0,000
00:00 Uhr
0,000
0.127
29
76
12:50 Uhr
0.0
00:00 Uhr

00:00:00
0,1
0
4,8
08:50 Uhr

1
9.0
13:00 Uhr
6.3
00:10 Uhr
8.8
00:15 Uhr
0
00:00 Uhr
0.0
00:00 Uhr
0.0
00:00 Uhr
0.0
00:00 Uhr
07
Zeitraffer
09:15
12.5
14:35 Uhr
4.3
23:50 Uhr

95
07:20 Uhr
60
15:00 Uhr
1032.6
00:00 Uhr

1024.6
22:50 Uhr
1028.3
0,000
00:00 Uhr
0,000
0.457
91
297
11:40 Uhr
0.5
10:45 Uhr

02:04:00
1,1
0
17,7
09:40 Uhr

3
7.9
00:05 Uhr
2.8
23:50 Uhr
4.3
23:50 Uhr
0
00:00 Uhr
0.0
00:00 Uhr
0.0
00:00 Uhr
0.0
00:00 Uhr
08
Zeitraffer
09:11
9.9
14:00 Uhr
2.6
06:05 Uhr

97
23:30 Uhr
78
12:45 Uhr
1027.6
22:45 Uhr

1024.2
03:05 Uhr
1025.8
0,000
00:00 Uhr
0,000
0.381
96
255
11:45 Uhr
0.0
00:00 Uhr

03:02:00
2,3
1
17,7
18:15 Uhr

3
6.5
13:55 Uhr
1.4
06:05 Uhr
2.0
16:25 Uhr
0
00:00 Uhr
0.0
00:00 Uhr
0.0
00:00 Uhr
0.0
00:00 Uhr
09
Zeitraffer
09:08
6.2
18:15 Uhr
5.1
00:00 Uhr

97
00:00 Uhr
93
18:05 Uhr
1029.1
22:35 Uhr

1027.3
03:25 Uhr
1028.1
0,000
00:00 Uhr
0,000
0.025
18
35
13:45 Uhr
0.0
00:00 Uhr

00:00:00
3,7
1
16,1
07:15 Uhr

3
5.4
14:45 Uhr
4.6
00:35 Uhr
3.6
13:45 Uhr
0
00:00 Uhr
0.0
00:00 Uhr
0.0
00:00 Uhr
0.0
00:00 Uhr
10
Zeitraffer
09:04
6.0
22:30 Uhr
4.7
06:15 Uhr

95
03:25 Uhr
91
15:30 Uhr
1030.3
12:05 Uhr

1028.8
03:50 Uhr
1029.5
0,000
00:00 Uhr
0,000
0.000
15
31
10:50 Uhr
0.0
00:00 Uhr

00:00:00
3,1
1
19,3
05:50 Uhr

3
4.8
01:30 Uhr
4.0
05:55 Uhr
1.7
08:35 Uhr
0
00:00 Uhr
0.0
00:00 Uhr
0.0
00:00 Uhr
0.0
00:00 Uhr
11
Zeitraffer
09:01
6.8
11:05 Uhr
5.8
05:00 Uhr

93
00:45 Uhr
79
15:25 Uhr
1029.7
00:05 Uhr

1023.8
23:45 Uhr
1026.9
0,000
00:00 Uhr
0,000
0.203
27
42
10:20 Uhr
0.0
00:00 Uhr

00:00:00
1,6
0
17,7
09:50 Uhr

3
4.9
00:45 Uhr
3.3
15:25 Uhr
4.9
10:20 Uhr
0
00:00 Uhr
0.0
00:00 Uhr
0.0
00:00 Uhr
0.0
00:00 Uhr
12
Zeitraffer
08:58
10.4
12:55 Uhr
6.3
00:00 Uhr

94
05:00 Uhr
73
13:30 Uhr
1023.7
00:00 Uhr

1019.3
14:40 Uhr
1020.9
0,000
00:00 Uhr
0,000
0.330
39
109
12:35 Uhr
0.0
00:00 Uhr

00:00:00
1,7
0
20,9
15:40 Uhr

4
6.4
09:35 Uhr
4.4
00:00 Uhr
6.3
00:00 Uhr
0
00:00 Uhr
0.0
00:00 Uhr
0.0
00:00 Uhr
0.0
00:00 Uhr
13
Zeitraffer
08:54
11.6
10:10 Uhr
6.4
02:15 Uhr

93
07:35 Uhr
75
15:40 Uhr
1021.0
08:25 Uhr

1017.5
20:25 Uhr
1019.3
0,000
00:00 Uhr
0,000
0.279
63
244
09:55 Uhr
0.0
00:00 Uhr

01:17:00
0,1
0
9,7
14:40 Uhr

2
8.0
10:10 Uhr
4.9
02:15 Uhr
6.4
02:15 Uhr
0
00:00 Uhr
0.0
00:00 Uhr
0.0
00:00 Uhr
0.0
00:00 Uhr
14
Zeitraffer
08:51
14.6
13:45 Uhr
8.7
00:00 Uhr

95
05:45 Uhr
82
14:50 Uhr
1019.0
08:40 Uhr

1016.4
23:55 Uhr
1018.1
0,000
00:00 Uhr
0,200
0.203
45
118
12:10 Uhr
0.0
00:00 Uhr

00:01:00
0,2
0
11,3
23:25 Uhr

2
11.9
12:30 Uhr
7.2
00:00 Uhr
8.7
00:00 Uhr
3
16:55 Uhr
0.0
00:00 Uhr
0.0
00:00 Uhr
0.0
00:00 Uhr
15
Zeitraffer
08:47
14.7
13:10 Uhr
8.1
21:25 Uhr

88
00:00 Uhr
67
13:05 Uhr
1016.5
00:00 Uhr

1008.3
23:40 Uhr
1013.1
0,000
00:00 Uhr
0,000
1.117
67
256
12:00 Uhr
0.0
00:00 Uhr

00:48:00
2,8
1
24,1
20:15 Uhr

4
9.4
00:00 Uhr
5.1
20:05 Uhr
6.3
19:50 Uhr
2
00:00 Uhr
0.0
00:00 Uhr
0.1
13:10 Uhr
0.0
00:00 Uhr


 
Wetter Information zur Wetteranzeige
Zeitraffer
Tageslänge (hh:mm)
Höchsttemperatur in °C
Uhrzeit
Tiefsttemperatur in °C
Uhrzeit
Luftfeuchte (max., in %)
Uhrzeit
Luftfeuchte (min., in %)
Uhrzeit
Luftdruck (max., in hPa)
Uhrzeit
Luftdruck (min., in hPa)
Uhrzeit
Luftdruck (Ø, in hPa)
Regenrate (max, mm/h)
Uhrzeit
Niederschlag in mm
Verdunstung in mm
Solar in W/m² (Ø)
Solar in W/m² (max.)
UV-Index (max.)
Sonnenscheindauer (hh:mm)
Windrichtung (Ø)
Windstärke (Ø in km/h)
Windstärke (Ø in bft)
Windböe (max., in km/h)
Uhrzeit
Windböe (max., in bft)
Uhrzeit
Taupunkt (max., in °C)
Uhrzeit
Taupunkt (min., in °C)
Uhrzeit
Windchill (min., in °C)
Uhrzeit
Gewitterindex (max.)
Uhrzeit
Waldbrandindex (max.)
Uhrzeit
Graslandfeuerindex (max.)
Uhrzeit
Staubsturm-Index (max.)
Uhrzeit
16
Zeitraffer
08:45
13.2
11:50 Uhr
8.0
00:35 Uhr

93
08:40 Uhr
71
12:55 Uhr
1019.9
23:55 Uhr

1007.9
01:00 Uhr
1012.9
1,000
04:45 Uhr
0,800
0.457
75
292
11:00 Uhr
0.0
00:00 Uhr

01:23:00
0,5
0
17,7
00:55 Uhr

3
9.6
11:15 Uhr
5.3
00:00 Uhr
8.0
00:05 Uhr
0
00:00 Uhr
0.0
00:00 Uhr
0.0
00:00 Uhr
0.0
00:00 Uhr
17
Zeitraffer
08:42
11.6
12:10 Uhr
8.8
08:05 Uhr

94
16:40 Uhr
78
11:20 Uhr
1025.5
23:10 Uhr

1019.9
00:00 Uhr
1022.8
0,000
00:00 Uhr
0,400
0.152
41
116
11:10 Uhr
0.0
00:00 Uhr

00:33:00
0,2
0
6,4
08:40 Uhr

1
10.0
19:05 Uhr
6.7
08:40 Uhr
8.8
08:05 Uhr
2
16:50 Uhr
0.0
00:00 Uhr
0.0
00:00 Uhr
0.0
00:00 Uhr
18
Zeitraffer
08:38
13.0
11:45 Uhr
9.6
21:15 Uhr

89
00:05 Uhr
71
13:10 Uhr
1026.2
07:30 Uhr

1016.3
23:45 Uhr
1023.4
0,000
00:05 Uhr
0,000
0.279
42
88
11:30 Uhr
0.0
00:05 Uhr

00:00:00
0,7
0
12,9
11:15 Uhr

2
9.6
00:30 Uhr
6.0
23:55 Uhr
9.6
21:15 Uhr
2
00:05 Uhr
0.0
00:05 Uhr
0.0
00:05 Uhr
0.0
00:05 Uhr
19
Zeitraffer
08:35
12.2
09:35 Uhr
4.8
23:50 Uhr

87
10:50 Uhr
67
14:55 Uhr
1024.5
23:55 Uhr

1012.6
07:05 Uhr
1016.1
0,000
00:00 Uhr
0,400
0.457
32
101
12:15 Uhr
0.0
00:00 Uhr

00:00:00
1,0
0
11,3
00:55 Uhr

2
9.0
10:20 Uhr
1.7
22:45 Uhr
4.8
23:50 Uhr
0
00:00 Uhr
0.0
00:00 Uhr
0.0
00:00 Uhr
0.0
00:00 Uhr
20
Zeitraffer
08:33
6.5
13:50 Uhr
1.1
23:35 Uhr

91
23:50 Uhr
76
13:40 Uhr
1034.6
22:40 Uhr

1024.6
00:00 Uhr
1029.9
0,000
00:00 Uhr
0,000
0.203
60
227
10:15 Uhr
0.0
00:00 Uhr

01:11:00
0,2
0
8,0
03:50 Uhr

2
2.8
11:10 Uhr
-0.4
23:40 Uhr
1.1
23:35 Uhr
0
00:00 Uhr
0.0
00:00 Uhr
0.0
00:00 Uhr
0.0
00:00 Uhr
21
Zeitraffer
08:30
7.3
22:52 Uhr
0.7
01:55 Uhr

94
05:05 Uhr
66
17:50 Uhr
1035.0
00:40 Uhr

1024.4
23:45 Uhr
1030.0
0,000
00:00 Uhr
0,000
0.406
62
248
10:30 Uhr
0.0
00:00 Uhr

00:54:00
1,2
0
12,9
11:35 Uhr

2
2.6
22:52 Uhr
-0.5
01:10 Uhr
0.7
01:55 Uhr
0
00:00 Uhr
0.0
00:00 Uhr
0.0
00:00 Uhr
0.0
00:00 Uhr
22
Zeitraffer
08:27
10.9
14:20 Uhr
6.4
23:50 Uhr

92
21:05 Uhr
73
00:00 Uhr
1024.4
00:00 Uhr

1020.8
13:10 Uhr
1022.4
5,800
19:35 Uhr
1,200
0.330
38
105
13:20 Uhr
0.0
00:00 Uhr

00:00:00
0,6
0
8,0
00:25 Uhr

2
7.5
13:25 Uhr
2.5
00:00 Uhr
6.4
23:50 Uhr
0
00:00 Uhr
0.0
00:00 Uhr
0.0
00:00 Uhr
0.0
00:00 Uhr
23
Zeitraffer
08:25
9.1
11:35 Uhr
4.4
23:55 Uhr

93
00:05 Uhr
76
14:30 Uhr
1028.8
23:45 Uhr

1021.9
03:45 Uhr
1024.8
0,000
00:00 Uhr
0,000
0.229
112
262
11:35 Uhr
0.0
00:00 Uhr

02:29:00
0,1
0
6,4
09:25 Uhr

1
5.4
11:40 Uhr
2.6
23:55 Uhr
4.4
23:55 Uhr
0
00:00 Uhr
0.0
00:00 Uhr
0.0
00:00 Uhr
0.0
00:00 Uhr
24
Zeitraffer
08:22
7.8
14:30 Uhr
2.7
07:05 Uhr

90
02:10 Uhr
76
13:55 Uhr
1028.8
00:05 Uhr

1022.2
23:55 Uhr
1025.2
0,000
00:00 Uhr
0,000
0.229
61
210
12:10 Uhr
0.0
00:00 Uhr

01:33:00
0,2
0
11,3
10:40 Uhr

2
4.1
14:50 Uhr
0.9
07:05 Uhr
2.7
07:05 Uhr
0
00:00 Uhr
0.0
00:00 Uhr
0.0
00:00 Uhr
0.0
00:00 Uhr
25
Zeitraffer
08:20
2.9
16:35 Uhr
0.7
05:40 Uhr

95
07:30 Uhr
90
00:00 Uhr
1022.2
00:05 Uhr

1019.4
20:30 Uhr
1020.3
0,000
00:00 Uhr
0,000
0.000
18
31
11:40 Uhr
0.0
00:00 Uhr

00:00:00
0,6
0
12,9
03:45 Uhr

2
1.9
14:00 Uhr
-0.3
04:30 Uhr
0.7
05:40 Uhr
0
00:00 Uhr
0.0
00:00 Uhr
0.0
00:00 Uhr
0.0
00:00 Uhr
26
Zeitraffer
08:17
7.4
20:05 Uhr
0.8
04:10 Uhr

96
20:50 Uhr
91
13:55 Uhr
1021.3
23:25 Uhr

1019.6
13:15 Uhr
1020.4
2,400
14:00 Uhr
0,600
0.000
17
43
11:15 Uhr
0.0
00:00 Uhr

00:00:00
0,1
0
4,8
10:00 Uhr

1
6.8
20:50 Uhr
-0.2
04:10 Uhr
0.8
04:10 Uhr
0
00:00 Uhr
0.0
00:00 Uhr
0.0
00:00 Uhr
0.0
00:00 Uhr
27
Zeitraffer
08:14
7.4
00:00 Uhr
3.9
23:25 Uhr

96
00:00 Uhr
88
20:30 Uhr
1023.9
23:35 Uhr

1020.8
01:30 Uhr
1022.3
0,000
00:00 Uhr
0,200
0.102
33
91
12:15 Uhr
0.0
00:00 Uhr

00:00:00
0,9
0
11,3
14:00 Uhr

2
6.8
00:00 Uhr
2.1
23:25 Uhr
3.9
23:25 Uhr
0
00:00 Uhr
0.0
00:00 Uhr
0.0
00:00 Uhr
0.0
00:00 Uhr
28
Zeitraffer
08:12
5.7
15:30 Uhr
0.6
23:50 Uhr

90
04:55 Uhr
72
13:20 Uhr
1027.3
23:00 Uhr

1023.5
01:05 Uhr
1025.2
0,000
00:00 Uhr
0,000
0.178
33
85
12:40 Uhr
0.0
00:00 Uhr

00:00:00
0,7
0
14,5
11:55 Uhr

3
2.1
00:00 Uhr
-1.0
23:50 Uhr
0.6
23:50 Uhr
0
00:00 Uhr
0.0
00:00 Uhr
0.0
00:00 Uhr
0.0
00:00 Uhr
29
Zeitraffer
08:09
0.6
00:00 Uhr
-0.7
02:40 Uhr

94
03:55 Uhr
89
00:00 Uhr
1027.2
00:00 Uhr

1026.2
05:00 Uhr
1026.7
0,000
00:00 Uhr
0,000
0.000
0
0
00:00 Uhr
0.0
00:00 Uhr

00:00:00
0,0
0
3,2
03:45 Uhr

1
-0.7
01:10 Uhr
-1.7
02:35 Uhr
-0.7
02:40 Uhr
0
00:00 Uhr
0.0
00:00 Uhr
0.0
00:00 Uhr
0.0
00:00 Uhr
Stationsstandorte || Wetterblog || Wissenswertes || Downloads || Seitenhistorie || Partner || Impressum / Datenschutz